{"data":{"norad_id":60133,"intl_designator":"2024-119A","name":"GOES 19","alt_names":[],"object_type":"PAYLOAD","status":"ACTIVE","operator":null,"country":"US","launch_date":"2024-06-25","launch_site_code":"AFETR","launch_vehicle":null,"mission":null,"orbit_class":"UNKNOWN","rcs_meters":null,"size_class":null,"mass_kg":null,"dimensions":null,"purposes":["comms","earth_obs"],"wikipedia_slug":null,"has_3d_model":false,"image_url":null,"decayed_at":null,"tle_current":{"epoch":"2026-05-25T03:23:10.627008Z","epoch_age_seconds":66021,"freshness":"FRESH","line1":"1 60133U 24119A   26145.14109522 -.00000251  00000+0  00000+0 0  9999","line2":"2 60133   0.0473 112.8592 0000398  10.4217  95.0500  1.00272601  6736","mean_motion":1.00272601,"eccentricity":3.98e-5,"inclination_deg":0.0473,"raan_deg":112.8592,"arg_perigee_deg":10.4217,"mean_anomaly_deg":95.05,"bstar":0,"rev_number":673,"period_min":1436.0852173367,"perigee_km":35784.688061093,"apogee_km":35788.044355548,"semimajor_km":42164.50320832,"source":"CELESTRAK","updated_at":"2026-05-25T13:38:14.145988Z"}}}